FW8796 Weather Reports


time (UTC)temp
C
wind
direction
speed
KPH
gust
KPH
rain 1hr
cm
rain 24hr
cm
rain mn
cm
humidity
%
barometer
mb
20260508010605 -1 228 0.0 0.0 0.00 0.00 0.00 83 1020.9
20260508010105 -1 228 0.0 0.0 0.00 0.00 0.00 83 1020.9
20260508005605 -1 228 0.0 0.0 0.00 0.00 0.00 83 1020.9
20260508005104 -1 228 0.0 0.0 0.00 0.00 0.00 83 1021.0
20260508004104 -1 228 0.0 0.0 0.00 0.00 0.00 82 1020.9
20260508003604 0 228 0.0 0.0 0.00 0.00 0.00 82 1020.9
20260508003105 0 228 0.0 0.0 0.00 0.00 0.00 81 1020.9
20260508002605 0 228 0.0 0.0 0.00 0.00 0.00 81 1020.9
20260508002104 0 228 0.0 0.0 0.00 0.00 0.00 82 1020.9
20260508001604 0 228 0.0 0.0 0.00 0.00 0.00 82 1020.9
20260508001104 0 228 0.0 0.0 0.00 0.00 0.00 82 1020.9
20260508000604 0 228 0.0 0.0 0.00 0.00 0.00 83 1020.8
20260507235604 0 228 0.0 0.0 0.00 0.00 0.00 84 1020.8
20260507235104 0 228 0.0 0.0 0.00 0.00 0.00 85 1020.8
20260507234605 -1 228 0.0 0.0 0.00 0.00 0.00 85 1020.8
20260507234104 -1 228 0.0 0.0 0.00 0.00 0.00 85 1020.8
20260507233604 -1 228 0.0 0.0 0.00 0.00 0.00 85 1020.8
20260507233105 -1 228 0.0 0.0 0.00 0.00 0.00 86 1020.8
20260507232604 -1 228 0.0 3.2 0.00 0.00 0.00 85 1020.8
20260507232105 -1 228 0.0 1.6 0.00 0.00 0.00 85 1020.8
20260507231605 -1 228 0.0 0.0 0.00 0.00 0.00 85 1020.8
20260507231104 0 221 0.0 0.0 0.00 0.00 0.00 85 1020.8
20260507230604 0 221 0.0 0.0 0.00 0.00 0.00 85 1020.8
20260507230105 0 221 0.0 0.0 0.00 0.00 0.00 84 1020.8
20260507225604 0 221 0.0 0.0 0.00 0.00 0.00 84 1020.8
20260507225105 0 221 0.0 0.0 0.00 0.00 0.00 84 1020.8
20260507224604 0 221 0.0 0.0 0.00 0.00 0.00 84 1020.8
20260507224104 0 221 0.0 0.0 0.00 0.00 0.00 84 1020.8
20260507223604 0 221 0.0 0.0 0.00 0.00 0.00 84 1020.8
20260507223104 0 221 0.0 0.0 0.00 0.00 0.00 84 1020.7
20260507222605 0 221 0.0 0.0 0.00 0.00 0.00 84 1020.7
20260507222104 0 221 0.0 0.0 0.00 0.00 0.00 83 1020.7
20260507221604 0 221 0.0 0.0 0.00 0.00 0.00 82 1020.6
20260507221105 0 221 0.0 0.0 0.00 0.00 0.00 82 1020.6
20260507220605 0 221 0.0 0.0 0.00 0.00 0.00 81 1020.6
20260507220104 0 221 0.0 0.0 0.00 0.00 0.00 81 1020.6
20260507215604 0 221 0.0 0.0 0.00 0.00 0.00 82 1020.6
20260507214104 0 221 0.0 0.0 0.00 0.00 0.00 80 1020.6
20260507213604 0 221 0.0 0.0 0.00 0.00 0.00 80 1020.6
20260507213105 0 221 0.0 0.0 0.00 0.00 0.00 80 1020.6
20260507212605 0 221 0.0 0.0 0.00 0.00 0.00 79 1020.5
20260507212104 1 221 0.0 0.0 0.00 0.00 0.00 79 1020.5
20260507211604 1 221 0.0 0.0 0.00 0.00 0.00 78 1020.6
20260507211105 1 221 0.0 0.0 0.00 0.00 0.00 77 1020.6
20260507210604 1 221 0.0 0.0 0.00 0.00 0.00 77 1020.5
20260507210104 1 221 0.0 0.0 0.00 0.00 0.00 77 1020.5
20260507205105 1 221 0.0 0.0 0.00 0.00 0.00 75 1020.5
20260507204604 1 221 0.0 0.0 0.00 0.00 0.00 75 1020.4
20260507204104 1 221 0.0 0.0 0.00 0.00 0.00 74 1020.4
20260507203604 1 221 0.0 0.0 0.00 0.00 0.00 73 1020.3
20260507203104 2 221 0.0 0.0 0.00 0.00 0.00 73 1020.2
20260507202604 2 221 0.0 0.0 0.00 0.00 0.00 73 1020.2
20260507202104 2 221 0.0 0.0 0.00 0.00 0.00 72 1020.1
20260507201605 2 221 0.0 0.0 0.00 0.00 0.00 72 1020.1
20260507201104 2 221 0.0 0.0 0.00 0.00 0.00 71 1020.0
20260507200604 2 221 0.0 0.0 0.00 0.00 0.00 71 1019.9
20260507200105 2 221 0.0 0.0 0.00 0.00 0.00 70 1019.8
20260507195604 3 221 0.0 0.0 0.00 0.00 0.00 69 1019.8
20260507195104 3 221 0.0 0.0 0.00 0.00 0.00 69 1019.7
20260507194605 3 221 0.0 0.0 0.00 0.00 0.00 68 1019.7
20260507194104 3 221 0.0 0.0 0.00 0.00 0.00 67 1019.6
20260507193605 3 221 0.0 0.0 0.00 0.00 0.00 66 1019.5
20260507193105 4 221 0.0 0.0 0.00 0.00 0.00 65 1019.4
20260507192105 4 221 0.0 0.0 0.00 0.00 0.00 63 1019.2
20260507191104 5 221 0.0 0.0 0.00 0.00 0.00 63 1019.1
20260507190605 5 221 0.0 0.0 0.00 0.00 0.00 61 1019.1
20260507185604 5 221 0.0 0.0 0.00 0.00 0.00 60 1019.0
20260507185105 6 221 0.0 0.0 0.00 0.00 0.00 58 1019.0
20260507184604 6 221 0.0 0.0 0.00 0.00 0.00 57 1018.9
20260507184105 6 221 0.0 0.0 0.00 0.00 0.00 55 1018.9
20260507183605 6 221 0.0 1.6 0.00 0.00 0.00 53 1018.9
20260507182105 7 221 3.2 8.0 0.00 0.00 0.00 49 1018.8
20260507181604 7 222 3.2 8.0 0.00 0.00 0.00 49 1018.7
20260507180604 7 224 3.2 4.8 0.00 0.00 0.00 47 1018.6
20260507174604 9 197 3.2 9.7 0.00 0.00 0.00 42 1018.5
20260507174104 9 224 3.2 8.0 0.00 0.00 0.00 43 1018.5
20260507173104 9 217 8.0 11.3 0.00 0.00 0.00 43 1018.5
20260507172105 9 197 3.2 11.3 0.00 0.00 0.00 41 1018.5
20260507171604 10 221 4.8 12.9 0.00 0.00 0.00 40 1018.5
20260507171105 10 178 4.8 11.3 0.00 0.00 0.00 40 1018.5
20260507170604 10 217 1.6 11.3 0.00 0.00 0.00 39 1018.5
20260507170105 10 232 3.2 9.7 0.00 0.00 0.00 40 1018.5
20260507165605 10 233 4.8 11.3 0.00 0.00 0.00 38 1018.5
20260507165104 10 235 4.8 11.3 0.00 0.00 0.00 38 1018.6
20260507164604 10 180 4.8 12.9 0.00 0.00 0.00 36 1018.5
20260507163604 10 168 4.8 11.3 0.00 0.00 0.00 36 1018.5
20260507163105 10 185 3.2 8.0 0.00 0.00 0.00 35 1018.5
20260507162604 10 227 6.4 12.9 0.00 0.00 0.00 35 1018.5
20260507161604 10 241 6.4 14.5 0.00 0.00 0.00 34 1018.4
20260507160605 10 238 3.2 12.9 0.00 0.00 0.00 32 1018.4
20260507160104 10 241 3.2 9.7 0.00 0.00 0.00 31 1018.4
20260507155604 10 230 8.0 16.1 0.00 0.00 0.00 33 1018.4
20260507155105 10 241 4.8 11.3 0.00 0.00 0.00 31 1018.4
20260507154604 10 259 4.8 19.3 0.00 0.00 0.00 30 1018.4
20260507153604 11 208 4.8 12.9 0.00 0.00 0.00 30 1018.4
20260507153104 11 230 3.2 4.8 0.00 0.00 0.00 30 1018.4
20260507152605 11 227 4.8 9.7 0.00 0.00 0.00 31 1018.4
20260507152104 11 183 3.2 9.7 0.00 0.00 0.00 31 1018.4
20260507151604 11 200 4.8 11.3 0.00 0.00 0.00 31 1018.4
20260507151104 10 269 4.8 12.9 0.00 0.00 0.00 31 1018.5
20260507150604 10 240 6.4 11.3 0.00 0.00 0.00 32 1018.5
20260507145105 11 246 9.7 19.3 0.00 0.00 0.00 33 1018.6
20260507143604 10 226 6.4 11.3 0.00 0.00 0.00 32 1018.5
20260507143104 10 219 3.2 9.7 0.00 0.00 0.00 32 1018.6
20260507142604 10 228 6.4 22.5 0.00 0.00 0.00 32 1018.6
20260507142104 10 224 4.8 14.5 0.00 0.00 0.00 32 1018.6
20260507141104 10 229 1.6 16.1 0.00 0.00 0.00 32 1018.7
20260507140604 10 216 9.7 19.3 0.00 0.00 0.00 30 1018.8
20260507140104 10 201 1.6 14.5 0.00 0.00 0.00 30 1018.8
20260507135604 10 231 8.0 16.1 0.00 0.00 0.00 31 1018.7
20260507135104 10 292 4.8 9.7 0.00 0.00 0.00 30 1018.7
20260507134604 10 238 12.9 20.9 0.00 0.00 0.00 31 1018.8
20260507134104 10 241 4.8 12.9 0.00 0.00 0.00 31 1018.8
20260507133605 10 283 3.2 4.8 0.00 0.00 0.00 29 1018.8
20260507133104 10 205 3.2 12.9 0.00 0.00 0.00 31 1018.8
20260507132606 10 247 11.3 24.1 0.00 0.00 0.00 31 1018.9
20260507132104 10 219 12.9 20.9 0.00 0.00 0.00 32 1018.8
20260507131605 10 258 1.6 11.3 0.00 0.00 0.00 32 1018.9
20260507131104 10 225 11.3 16.1 0.00 0.00 0.00 34 1018.9
20260507130605 10 249 4.8 12.9 0.00 0.00 0.00 31 1018.9
20260507130104 10 302 4.8 9.7 0.00 0.00 0.00 29 1018.7
20260507125605 10 207 0.0 4.8 0.00 0.00 0.00 30 1018.8
20260507124604 10 189 3.2 20.9 0.00 0.00 0.00 33 1018.9
20260507124104 10 243 12.9 20.9 0.00 0.00 0.00 33 1018.9
20260507123605 10 247 4.8 9.7 0.00 0.00 0.00 31 1018.8
20260507123104 10 268 4.8 11.3 0.00 0.00 0.00 29 1018.9
20260507122604 10 142 12.9 19.3 0.00 0.00 0.00 29 1018.9
20260507122104 10 321 1.6 4.8 0.00 0.00 0.00 30 1018.9
20260507121105 10 199 8.0 14.5 0.00 0.00 0.00 30 1019.0
20260507120604 11 180 8.0 20.9 0.00 0.00 0.00 31 1018.9
20260507120104 10 308 3.2 14.5 0.00 0.00 0.00 30 1018.9
20260507115604 10 72 6.4 16.1 0.00 0.00 0.00 32 1018.9
20260507115104 9 184 3.2 19.3 0.00 0.00 0.00 29 1018.9
20260507114604 9 146 8.0 14.5 0.00 0.00 0.00 31 1018.9
20260507114104 8 59 1.6 11.3 0.00 0.00 0.00 32 1018.9
20260507113605 8 310 6.4 11.3 0.00 0.00 0.00 31 1018.8
20260507113105 8 267 1.6 19.3 0.00 0.00 0.00 32 1018.9
20260507112604 9 214 12.9 19.3 0.00 0.00 0.00 35 1018.9
20260507111605 10 331 8.0 16.1 0.00 0.00 0.00 29 1019.0
20260507110604 9 146 1.6 16.1 0.00 0.00 0.00 30 1019.1
20260507110104 9 42 3.2 11.3 0.00 0.00 0.00 31 1019.2
20260507105604 9 44 8.0 16.1 0.00 0.00 0.00 31 1019.2
20260507105104 9 70 8.0 14.5 0.00 0.00 0.00 31 1019.1
20260507104605 8 25 3.2 14.5 0.00 0.00 0.00 32 1019.1
20260507104104 8 68 6.4 14.5 0.00 0.00 0.00 32 1019.1
20260507103604 9 355 1.6 16.1 0.00 0.00 0.00 33 1019.1
20260507103104 9 91 4.8 16.1 0.00 0.00 0.00 33 1019.1
20260507102605 8 43 4.8 19.3 0.00 0.00 0.00 34 1019.1
20260507102104 8 100 4.8 14.5 0.00 0.00 0.00 36 1019.1
20260507101104 8 0 3.2 19.3 0.00 0.00 0.00 34 1019.1
20260507100604 8 354 9.7 14.5 0.00 0.00 0.00 32 1019.1
20260507100104 8 26 4.8 11.3 0.00 0.00 0.00 33 1019.1
20260507095604 8 300 1.6 9.7 0.00 0.00 0.00 35 1019.0
20260507095104 8 24 3.2 12.9 0.00 0.00 0.00 34 1019.1
20260507094104 7 105 8.0 14.5 0.00 0.00 0.00 35 1019.0
20260507093604 8 338 8.0 12.9 0.00 0.00 0.00 36 1019.1
20260507093104 8 136 4.8 14.5 0.00 0.00 0.00 35 1019.0
20260507092604 8 59 6.4 12.9 0.00 0.00 0.00 37 1019.1
20260507092104 7 45 3.2 8.0 0.00 0.00 0.00 39 1019.0
20260507091604 7 108 1.6 12.9 0.00 0.00 0.00 37 1019.0
20260507091105 7 6 8.0 14.5 0.00 0.00 0.00 36 1019.1
20260507090604 7 147 4.8 9.7 0.00 0.00 0.00 39 1019.0
20260507090105 7 67 3.2 12.9 0.00 0.00 0.00 39 1019.0
20260507085604 6 123 3.2 11.3 0.00 0.00 0.00 42 1019.0
20260507085105 6 204 3.2 4.8 0.00 0.00 0.00 39 1018.9
20260507084604 6 113 0.0 8.0 0.00 0.00 0.00 39 1019.0
20260507084104 6 115 0.0 8.0 0.00 0.00 0.00 40 1019.0
20260507083605 6 95 3.2 8.0 0.00 0.00 0.00 39 1019.0
20260507083104 6 61 0.0 3.2 0.00 0.00 0.00 43 1019.0
20260507082604 6 60 1.6 9.7 0.00 0.00 0.00 42 1019.0
20260507081104 5 238 0.0 3.2 0.00 0.00 0.00 46 1019.0
20260507080604 5 238 0.0 4.8 0.00 0.00 0.00 47 1018.9
20260507080105 4 238 1.6 4.8 0.00 0.00 0.00 47 1018.9
20260507075604 5 187 0.0 1.6 0.00 0.00 0.00 48 1018.9
20260507074604 4 189 0.0 3.2 0.00 0.00 0.00 52 1018.8
20260507074105 4 189 1.6 4.8 0.00 0.00 0.00 53 1018.8
20260507073605 3 189 0.0 4.8 0.00 0.00 0.00 54 1018.8
20260507073104 3 190 3.2 4.8 0.00 0.00 0.00 54 1018.8
20260507072605 3 198 0.0 4.8 0.00 0.00 0.00 59 1018.8
20260507072104 3 198 1.6 4.8 0.00 0.00 0.00 58 1018.8
20260507071604 3 238 1.6 4.8 0.00 0.00 0.00 60 1018.8
20260507071104 3 264 0.0 3.2 0.00 0.00 0.00 59 1018.8
20260507070605 2 265 1.6 4.8 0.00 0.00 0.00 60 1018.7
20260507070104 2 266 0.0 3.2 0.00 0.00 0.00 62 1018.7
20260507065105 2 266 0.0 3.2 0.00 0.00 0.00 65 1018.8
20260507064604 2 266 0.0 0.0 0.00 0.00 0.00 66 1018.7
20260507064104 2 266 0.0 0.0 0.00 0.00 0.00 68 1018.7
20260507063605 1 266 0.0 0.0 0.00 0.00 0.00 71 1018.7
20260507063104 1 266 0.0 0.0 0.00 0.00 0.00 72 1018.7
20260507062604 0 266 0.0 0.0 0.00 0.00 0.00 72 1018.8
20260507062105 0 266 0.0 0.0 0.00 0.00 0.00 75 1018.7
20260507061605 0 266 0.0 0.0 0.00 0.00 0.00 77 1018.7
20260507061104 0 266 0.0 0.0 0.00 0.00 0.00 77 1018.7
20260507060604 0 266 0.0 0.0 0.00 0.00 0.00 79 1018.7
20260507060105 0 266 0.0 0.0 0.00 0.00 0.00 80 1018.7
20260507055104 -1 266 0.0 0.0 0.00 0.00 0.00 83 1018.7
20260507054104 -1 266 0.0 0.0 0.00 0.00 0.00 87 1018.7
20260507053604 -2 266 0.0 0.0 0.00 0.00 0.00 88 1018.7
20260507052604 -3 266 0.0 0.0 0.00 0.00 0.00 90 1018.7
20260507051605 -4 266 0.0 0.0 0.00 0.00 0.00 91 1018.7
20260507050604 -5 266 0.0 0.0 0.00 0.00 0.00 90 1018.7
20260507045604 -5 266 0.0 0.0 0.00 0.00 0.00 90 1018.7
20260507045104 -5 266 0.0 0.0 0.00 0.00 0.00 90 1018.7
20260507044604 -5 266 0.0 0.0 0.00 0.00 0.00 90 1018.6
20260507044104 -5 266 0.0 0.0 0.00 0.00 0.00 90 1018.5
20260507043604 -5 266 0.0 0.0 0.00 0.00 0.00 90 1018.5
20260507043104 -5 266 0.0 0.0 0.00 0.00 0.00 90 1018.5
20260507042605 -5 266 0.0 0.0 0.00 0.00 0.00 90 1018.4
20260507042104 -5 266 0.0 0.0 0.00 0.00 0.00 90 1018.4
20260507041604 -5 266 0.0 0.0 0.00 0.00 0.00 90 1018.4
20260507041104 -5 266 0.0 0.0 0.00 0.00 0.00 90 1018.4
20260507035604 -6 266 0.0 0.0 0.00 0.00 0.00 90 1018.3
20260507035104 -6 266 0.0 0.0 0.00 0.00 0.00 90 1018.3
20260507034605 -6 266 0.0 0.0 0.00 0.00 0.00 90 1018.2
20260507034104 -6 266 0.0 0.0 0.00 0.00 0.00 90 1018.2
20260507033604 -6 266 0.0 0.0 0.00 0.00 0.00 89 1018.1
20260507033105 -5 266 0.0 0.0 0.00 0.00 0.00 90 1018.1
20260507032104 -5 266 0.0 0.0 0.00 0.00 0.00 90 1018.1
20260507031605 -5 266 0.0 0.0 0.00 0.00 0.00 89 1018.1
20260507031104 -5 266 0.0 0.0 0.00 0.00 0.00 90 1018.1
20260507030604 -5 265 0.0 0.0 0.00 0.00 0.00 90 1018.1
20260507025104 -5 266 0.0 0.0 0.00 0.00 0.00 90 1018.0
20260507024605 -5 266 0.0 0.0 0.00 0.00 0.00 89 1017.9
20260507024104 -5 265 0.0 0.0 0.00 0.00 0.00 89 1018.0
20260507023604 -5 266 0.0 0.0 0.00 0.00 0.00 90 1017.9
20260507022604 -5 266 0.0 0.0 0.00 0.00 0.00 89 1017.8
20260507022105 -5 265 0.0 0.0 0.00 0.00 0.00 89 1017.8
20260507021605 -5 266 0.0 0.0 0.00 0.00 0.00 89 1017.8
20260507021104 -5 266 0.0 0.0 0.00 0.00 0.00 89 1017.8
20260507020605 -5 266 0.0 0.0 0.00 0.00 0.00 89 1017.8
20260507020105 -5 266 0.0 0.0 0.00 0.00 0.00 89 1017.7
20260507015604 -5 266 0.0 0.0 0.00 0.00 0.00 89 1017.7
20260507014605 -5 266 0.0 0.0 0.00 0.00 0.00 89 1017.7
20260507014104 -5 266 0.0 0.0 0.00 0.00 0.00 89 1017.7
20260507013604 -5 266 0.0 0.0 0.00 0.00 0.00 89 1017.7
20260507013105 -5 266 0.0 0.0 0.00 0.00 0.00 89 1017.7
20260507012604 -5 266 0.0 0.0 0.00 0.00 0.00 89 1017.7
20260507011604 -5 266 0.0 0.0 0.00 0.00 0.00 87 1017.6